Regional Weather Roundup
Issued by NWS

Home | Current Version | Previous Version | Graphics & Text | Print | Product List | Glossary On
Versions: 1 2 3 4 5 6 7 8 9 10 11 12 13 14 15 16 17 18 19 20 21 22 23 24 25 26 27 28 29 30 31 32 33 34 35 36 37 38 39 40 41 42 43 44 45 46 47 48 49 50
000
ASUS43 KIND 261609
RWRIN

WEATHER ROUNDUP FOR INDIANA
NATIONAL WEATHER SERVICE INDIANAPOLIS IN
1200 PM EDT MON SEP 26 2016

NOTE: "FAIR" INDICATES FEW OR NO CLOUDS BELOW 12,000 FEET WITH NO
SIGNIFICANT WEATHER AND/OR OBSTRUCTIONS TO VISIBILITY.

* - STATION DOES NOT REPORT WEATHER SUCH AS PRECIPITATION OR FOG.

+ - STATION NOT QUALITY CONTROLLED BY THE NATIONAL WEATHER SERVICE.
    USE DATA WITH CAUTION...ESPECIALLY DEWPOINT AND RELATIVE
    HUMIDITY OBSERVATIONS.

INZ001>003-010>013-019-020-261700-
NORTHWEST INDIANA

CITY           SKY/WX    TMP DP  RH WIND       PRES   REMARKS
GARY /AIRPORT/ MOSUNNY   68  43  40 W20G32    30.01F
KNOX *+        PTSUNNY   63  32  31 W8        30.02S
LA PORTE +     SUNNY     66  47  50 W14G22    30.01S
MICHIGAN CITY+ SUNNY     64  45  48 MISG      30.00S
MONTICELLO +   CLOUDY    61  46  57 W9G16     30.05S
RENSSELAER +   CLOUDY    66  41  39 W14G20    30.04F
VALPARAISO     SUNNY     65  47  52 W13G23    30.02S

$$

LMZ046-743>745-261700-
SOUTHERN LAKE MICHIGAN

STATION/POSITION TIME  TEMP    WIND        PRES    WAVE
                       AIR SEA DIR/SP/G            HT
                 (UTC) (F)     (DEG/KT/KT) (MB)    (FT)
BURNS HARBOR     1600   64     260/ 19/ 24 1015.9F
MICHIGAN CITY    1500   62     230/ 22/ 25   N/A
5NW MICH CITY    1600   64 66  260/ 17/ 23   N/A     5

$$

INZ004-005-014>016-021>024-261700-
NORTH CENTRAL INDIANA

CITY           SKY/WX    TMP DP  RH WIND       PRES   REMARKS
ELKHART        SUNNY    N/A N/A N/A W14       29.97F
GOSHEN         CLOUDY    62  53  72 W13       29.99S
LOGANSPORT +   CLOUDY    61  52  72 W12G17    30.06S
PERU/GRISSOM   MOSUNNY   61  55  78 W13G21    30.03S
ROCHESTER +    CLOUDY    64  54  68 W10G16    30.03S
SOUTH BEND     MOSUNNY   63  51  65 W16       29.99F
WARSAW +       CLOUDY    59  46  63 W12G18    30.01S

$$

INZ006>009-017-018-025>027-261700-
NORTHEAST INDIANA

CITY           SKY/WX    TMP DP  RH WIND       PRES   REMARKS
ANGOLA *+        N/A     61  52  72 W7        29.98S
AUBURN +       CLOUDY    61  54  77 W9        30.00S
FORT WAYNE     CLOUDY    61  54  77 W13G21    30.02R
HUNTINGTON +   CLOUDY    59  55  87 W10       30.02S
KENDALLVILLE + PTSUNNY   60  54  80 W15       29.99S

$$

INZ028-029-035-036-043>045-051>053-261700-
WEST CENTRAL INDIANA

CITY           SKY/WX    TMP DP  RH WIND       PRES   REMARKS
CRAWFORDSVL +  PTSUNNY   60  56  84 W9        30.09S
GREENCASTLE +  CLOUDY    61  59  94 W5        30.11S
LAFAYETTE      CLOUDY    61  53  75 W9        30.07S
TERRE HAUTE    LGT RAIN  65  53  65 W10       30.11S

$$

INZ030>032-037>040-046>048-054>057-064-065-261700-
CENTRAL INDIANA

CITY           SKY/WX    TMP DP  RH WIND       PRES   REMARKS
ANDERSON       PTSUNNY   59  55  88 W8        30.07S
COLUMBUS       PTSUNNY   63  59  88 NW9       30.11S
FRANKFORT +    CLOUDY    63  55  75 NW13      30.09S
GREENWOOD *+   CLOUDY    63  55  77 NW8       30.10R
INDIANAPOLIS   CLOUDY    61  54  77 W12       30.09R
-EAGLE CREEK   CLOUDY    61  54  77 W9        30.08S
MARION +       CLOUDY    59  55  84 W8        30.05F
MT COMFORT *+  CLOUDY    61  54  77 W12       30.08F
SHELBYVILLE    PTSUNNY   64  55  72 W10       30.08R
ZIONSVILLE +   CLOUDY    59  54  84 W9        30.08F

$$

INZ033-034-041-042-049-050-058-059-261700-
EAST CENTRAL INDIANA

CITY           SKY/WX    TMP DP  RH WIND       PRES   REMARKS
MUNCIE         CLOUDY    62  54  74 W12       30.06R

$$

INZ060-061-067>069-081>083-085>088-261700-
SOUTHWEST INDIANA

CITY           SKY/WX    TMP DP  RH WIND       PRES   REMARKS
EVANSVILLE     CLOUDY    63  57  81 NW8       30.15S
HUNTINGBURG *+   N/A     63  57  82 NW6       30.13F
WASHINGTON +   CLOUDY    62  60  94 MISG      30.13R

$$

INZ062-063-066-070>080-084-089>092-261700-
SOUTH CENTRAL AND SOUTHEAST INDIANA

CITY           SKY/WX    TMP DP  RH WIND       PRES   REMARKS
BLOOMINGTON    CLOUDY    61  56  83 W8        30.11S
MADISON *+     CLOUDY    61  57  88 NW7       30.10F
NORTH VERNON + CLOUDY   N/A N/A N/A W8        30.10S
SEYMOUR +      PTSUNNY   64  59  82 CALM      30.10F

$$





USA.gov is the U.S. government's official web portal to all federal, state and local government web resources and services.